This is the latest recevied weather packets stored in our database for station/object KD4IZ-13. If no packets are shown the sender has not sent any weather packets the latest 10 day(s).
| Time | Temp. | Humidity | Pressure | Rain* | Wind** | Luminosity | Snow |
|---|---|---|---|---|---|---|---|
| 1778099417 | 18.89° C | 91% | 1009.6 hPa | 0 mm | - | 148 W/m² | - |
| 1778099114 | 18.89° C | 92% | 1009.3 hPa | 0 mm | - | 193 W/m² | - |
| 1778098810 | 18.89° C | 92% | 1009.4 hPa | 0 mm | - | 177 W/m² | - |
| 1778098508 | 18.89° C | 93% | 1009.5 hPa | 0 mm | - | 147 W/m² | - |
| 1778098199 | 18.33° C | 94% | 1009.4 hPa | 0 mm | - | 151 W/m² | - |
| 1778097894 | 18.33° C | 93% | 1009.5 hPa | 0 mm | - | 115 W/m² | - |
| 1778097586 | 18.33° C | 93% | 1009.5 hPa | 0 mm | - | 129 W/m² | - |
| 1778097283 | 18.33° C | 94% | 1009.4 hPa | 0 mm | - | 182 W/m² | - |
| 1778096979 | 18.33° C | 93% | 1009.4 hPa | 0 mm | - | 242 W/m² | - |
| 1778096677 | 18.33° C | 93% | 1009.4 hPa | 0 mm | - | 200 W/m² | - |
| 1778096373 | 18.33° C | 94% | 1009.7 hPa | 0 mm | - | 224 W/m² | - |
| 1778096071 | 18.33° C | 94% | 1009.4 hPa | 0 mm | - | 231 W/m² | - |
| 1778095767 | 18.33° C | 94% | 1009.4 hPa | 0 mm | - | 347 W/m² | - |
| 1778095464 | 18.33° C | 96% | 1009.4 hPa | 0 mm | - | 265 W/m² | - |
| 1778095161 | 17.78° C | 95% | 1009.4 hPa | 0 mm | - | 407 W/m² | - |
| 1778094857 | 17.78° C | 95% | 1009.7 hPa | 0 mm | - | 337 W/m² | - |
| 1778094554 | 17.78° C | 96% | 1009.6 hPa | 0 mm | - | 265 W/m² | - |
| 1778094251 | 17.78° C | 96% | 1009.7 hPa | 0 mm | - | 201 W/m² | - |
| 1778093948 | 17.78° C | 97% | 1009.7 hPa | 0 mm | - | 386 W/m² | - |
| 1778093645 | 17.78° C | 97% | 1009.7 hPa | 0 mm | - | 272 W/m² | - |
| 1778093342 | 17.78° C | 97% | 1009.8 hPa | 0 mm | - | 300 W/m² | - |
| 1778093039 | 17.78° C | 98% | 1009.8 hPa | 0 mm | - | 452 W/m² | - |
| 1778092736 | 17.22° C | 97% | 1009.7 hPa | 0 mm | - | 379 W/m² | - |
| 1778092431 | 17.22° C | 98% | 1009.8 hPa | 0 mm | - | 306 W/m² | - |
| 1778092129 | 17.22° C | 99% | 1009.9 hPa | 0 mm | - | 475 W/m² | - |
* Rain latest hour (hover to see other rain measurements)
** Current wind speed in m/s (hover to see current wind gust speed)